Regional Weather Roundup
Issued by NWS

Home | Current Version | Previous Version | Text Only | Print | Product List | Glossary On
Versions: 1 2 3 4 5 6 7 8 9 10 11 12 13 14 15 16 17 18 19 20 21 22 23 24 25 26 27 28 29 30 31 32 33 34 35 36 37 38 39 40 41 42 43 44 45 46 47 48 49 50
000
ASUS42 KFFC 231210
RWRGA
WEATHER ROUNDUP FOR GEORGIA
NATIONAL WEATHER SERVICE PEACHTREE CITY GA
700 AM EST THU FEB 23 2017

NOTE: "FAIR" INDICATES FEW OR NO CLOUDS BELOW 12,000 FEET WITH NO
SIGNIFICANT WEATHER AND/OR OBSTRUCTIONS TO VISIBILITY.

* = USE WITH CAUTION. THE STATIONS MARKED WITH AN ASTERISK MAY NOT
REPORT WEATHER SUCH AS PRECIPITATION, FOG, OR THUNDER AND ARE NOT
QUALITY CONTROLLED BY NWS.

THE REMARK "TC" DENOTES TEMPERATURE READING IN DEGREES CELSIUS.

GAZ001>058-231300-
NORTH GEORGIA

CITY           SKY/WX    TMP DP  RH WIND       PRES   REMARKS
ATLANTA        PTCLDY    56  54  93 NE8       29.89R
6HR MIN TEMP:  55; 6HR MAX TEMP:  59;

ATHENS         CLEAR     53  52  96 NE5       29.91R FOG
6HR MIN TEMP:  51; 6HR MAX TEMP:  59;

CHAMBLEE       CLEAR     53  51  93 CALM      29.90R FOG
6HR MIN TEMP:  53; 6HR MAX TEMP:  58;

PEACHTREE CITY PTCLDY    52  51  97 CALM      29.89R FOG
6HR MIN TEMP:  52; 6HR MAX TEMP:  61;

ROME           FOG       49  47  93 CALM      29.90R VSB 1/4
6HR MIN TEMP:  48; 6HR MAX TEMP:  54;

WEST ATLANTA   PTCLDY    51  49  92 NE3       29.89S
6HR MIN TEMP:  50; 6HR MAX TEMP:  58;

GAINESVILLE    CLEAR     55  54  96 E6        29.92S
6HR MIN TEMP:  53; 6HR MAX TEMP:  58;

CARTERSVILLE   CLOUDY    49  49 100 CALM      29.91S FOG
6HR MIN TEMP:  49; 6HR MAX TEMP:  57;



CITY           SKY/WX    TMP DP  RH WIND       PRES   REMARKS
DALTON*        CLOUDY    48  48 100 CALM      29.91S
LAWRENCEVILLE* CLEAR     54  52  94 NE7       29.91
MARIETTA       CLEAR     52  51  96 CALM      29.90S
KENNESAW*      CLEAR     50  50 100 CALM      29.93  FOG
CANTON*        CLEAR     54  50  87 NE3       29.92R
$$

GAZ059>098-102>109-231300-
CENTRAL GEORGIA

CITY           SKY/WX    TMP DP  RH WIND       PRES   REMARKS
AUGUSTA-BUSH   CLEAR     57  55  93 N6        29.87S
6HR MIN TEMP:  57; 6HR MAX TEMP:  62;

AUGUSTA-DANIEL CLEAR     60  54  80 N6        29.88S
6HR MIN TEMP:  58; 6HR MAX TEMP:  64;

COLUMBUS       CLOUDY    61  58  90 CALM      29.85S
6HR MIN TEMP:  61; 6HR MAX TEMP:  63;

MACON          CLEAR     57  55  93 N5        29.86R
6HR MIN TEMP:  57; 6HR MAX TEMP:  60; 6HR PCP: TRACE;

ROBINS AFB     CLEAR     57  55  94 CALM      29.86R FOG


CITY           SKY/WX    TMP DP  RH WIND       PRES   REMARKS
LAGRANGE*      CLOUDY    62  62 100 CALM      29.87S
SYLVANIA*      PTCLDY   N/A N/A N/A NE6       29.86S
MILLEDGEVILLE* CLEAR     55  55 100 CALM      29.89R
$$

GAZ099>101-110>166-231300-
SOUTH GEORGIA

CITY           SKY/WX    TMP DP  RH WIND       PRES   REMARKS
SAVANNAH       MOCLDY    60  57  89 NE8       29.82R
6HR MIN TEMP:  60; 6HR MAX TEMP:  63;

VALDOSTA       CLOUDY    63  62  97 N12       29.78R
6HR MIN TEMP:  61; 6HR MAX TEMP:  63;

ALMA           CLOUDY    61  61 100 N7        29.81R
6HR MIN TEMP:  61; 6HR MAX TEMP:  63;

ST SIMONS      CLOUDY    64  61  90 N13G22    29.77R
6HR MIN TEMP:  63; 6HR MAX TEMP:  67;

FT STEWART     PTCLDY    60  58  93 NE7       29.79R
ALBANY         CLOUDY    64  61  90 N6        29.85R
HUNTER AFB     PTCLDY    62  62 100 CALM      29.79R
MOODY AFB      CLOUDY    63  61  94 N12       29.78R
BRUNSWICK      PTCLDY    63  63 100 NE9       29.78S


CITY           SKY/WX    TMP DP  RH WIND       PRES   REMARKS
BAINBRIDGE*    CLOUDY    61  59  94 NE3       29.82S
MOULTRIE*      CLOUDY    63  61  94 N7        29.82R
VIDALIA*       CLOUDY    61  61 100 N7        29.84R
WAYCROSS*      CLOUDY    64  64 100 NE5       29.79R
DOUGLAS*       CLOUDY    63  61  94 N9        29.83R
$$




USA.gov is the U.S. government's official web portal to all federal, state and local government web resources and services.